DateTimeUTC,F1_A11,F1_S11,BsB_S11,BsG_S11,BsR_S11,BbsB_S11,BbsG_S11,BbsR_S11,BaB_A11,BaG_A11,BaR_A11,Tu_S11,T_S11,Uu_S11,U_S11,P_S11,T1_A11
2021-12-23T00:00:00Z,00000200,21000000,,,,,,,0000.02,-000.13,-000.18,19.8,26.7,,00.0,0667.0,31.2
2021-12-23T00:01:00Z,00000200,21000000,,,,,,,-000.20,-000.57,-000.06,19.8,26.8,,00.0,0667.0,31.2
2021-12-23T00:02:00Z,00000200,21000000,,,,,,,-000.46,0000.22,-000.21,19.8,26.8,,00.0,0667.0,31.2
2021-12-23T00:03:00Z,00000200,61000000,,,,,,,-000.28,-000.35,-000.27,19.8,26.8,,00.0,0667.0,31.2
2021-12-23T00:04:00Z,00000200,41000000,-000.21,-000.17,-000.12,0000.01,0000.05,0000.02,0000.20,0000.03,-000.30,20.1,26.7,,00.0,0668.0,31.2
2021-12-23T00:05:00Z,00000200,01000000,0000.73,-000.12,0000.02,0000.18,0000.30,0000.19,-000.08,0000.05,0000.33,20.2,26.7,,00.0,0668.0,31.2
2021-12-23T00:06:00Z,00000200,01000000,-000.16,-000.19,0000.05,0000.08,0000.42,0000.25,0000.15,0000.43,0000.51,20.3,26.7,,00.0,0668.0,31.2
2021-12-23T00:07:00Z,00000200,01000000,-000.17,0000.13,0000.18,-000.07,0000.15,0000.30,0000.41,-000.18,0000.04,20.3,26.7,,00.0,0668.0,31.2
2021-12-23T00:08:00Z,00000200,01000000,0000.39,-000.54,-000.26,-000.47,0000.10,-000.17,-000.01,0000.45,-000.32,20.3,26.7,,00.0,0668.0,31.2
2021-12-23T00:09:00Z,00000200,01000000,0000.10,-000.25,-000.02,-000.20,0000.25,0000.12,0000.15,-000.14,-000.07,20.3,26.7,,00.0,0668.0,31.2
2021-12-23T00:10:00Z,00000200,01000000,-000.23,0000.14,0000.34,0000.37,0000.20,0000.17,-000.02,0000.01,0000.29,20.3,26.7,,00.0,0667.9,31.2
2021-12-23T00:11:00Z,00000200,01000000,0000.31,-000.12,-000.19,0000.04,0000.13,0000.08,0000.11,-000.33,0000.03,20.3,26.7,,00.0,0667.9,31.2
2021-12-23T00:12:00Z,00000200,01000000,-000.12,0000.17,-000.23,0000.23,0000.07,-000.23,0000.03,0000.46,0000.04,20.3,26.7,,00.0,0667.9,31.2
2021-12-23T00:13:00Z,00000200,01000000,0000.26,-000.07,-000.25,0000.67,0000.11,-000.09,0000.41,0000.31,0000.34,20.3,26.7,,00.0,0667.9,31.2
2021-12-23T00:14:00Z,00000200,01000000,0000.53,-000.16,-000.41,0000.19,-000.13,0000.14,0000.39,0000.16,0000.21,20.3,26.7,,00.0,0667.9,31.1
2021-12-23T00:15:00Z,00000200,01000000,0000.20,-000.33,0000.16,-000.10,-000.14,0000.16,0000.04,0000.28,0000.19,20.3,26.7,,00.0,0667.9,31.1
2021-12-23T00:16:00Z,00000200,01000000,-000.44,-000.20,-000.09,0000.07,0000.33,0000.36,-000.04,-000.07,-000.05,20.3,26.7,,00.0,0667.9,31.2
2021-12-23T00:17:00Z,00000200,01000000,0000.49,0000.20,0000.10,-000.50,0000.00,0000.01,0000.12,0000.11,0000.19,20.3,26.7,,00.0,0667.8,31.2
2021-12-23T00:18:00Z,00000200,01000000,0000.90,-000.28,-000.17,-000.25,0000.26,-000.10,0000.09,0000.22,-000.45,20.2,26.7,,00.0,0667.8,31.1
2021-12-23T00:19:00Z,00000200,01000000,0000.36,-000.14,0000.00,0000.53,0000.14,0000.30,-000.02,-000.39,0000.34,20.1,26.7,,00.0,0667.8,31.1
2021-12-23T00:20:00Z,00000200,01000000,0000.30,-000.24,-000.00,-000.10,0000.25,-000.17,0000.07,0000.32,-000.20,20.0,26.6,,00.0,0667.7,31.1
2021-12-23T00:21:00Z,00000200,01000000,0000.13,0000.15,0000.04,0000.03,0000.16,0000.30,0000.09,0000.02,0000.31,19.9,26.6,,00.0,0667.7,31.1
2021-12-23T00:22:00Z,00000200,01000000,0000.72,-000.29,0000.08,0000.24,-000.01,0000.28,0000.36,0000.27,0000.27,19.8,26.5,,00.0,0667.7,31.1
2021-12-23T00:23:00Z,00000200,01000000,0000.67,-000.48,-000.14,-000.63,0000.19,0000.44,0000.13,0000.15,0000.13,19.7,26.5,,00.0,0667.7,31.1
2021-12-23T00:24:00Z,00000200,01000000,0000.47,0000.22,-000.17,-000.28,0000.47,-000.11,-000.13,0000.09,-000.35,19.6,26.4,,00.0,0667.7,31.1
2021-12-23T00:25:00Z,00000200,01000000,-000.06,-000.27,0000.09,-000.28,0000.50,0000.18,0000.07,-000.43,-000.19,19.6,26.4,,00.0,0667.8,31.1
2021-12-23T00:26:00Z,00000200,01000000,0000.01,-000.34,-000.18,0000.22,0000.40,-000.01,-000.10,0000.04,0000.02,19.6,26.3,,00.0,0667.8,31.1
2021-12-23T00:27:00Z,00000200,01000000,0000.14,-000.16,0000.08,-000.37,-000.02,0000.09,-000.21,-000.10,0000.19,19.6,26.3,,00.0,0667.8,31.1
2021-12-23T00:28:00Z,00000200,01000000,-000.01,-000.07,-000.11,-000.65,0000.20,0000.19,-000.16,-000.24,-000.19,19.6,26.3,,00.0,0667.8,31.1
2021-12-23T00:29:00Z,00000200,01000000,-000.05,0000.13,-000.23,0000.02,0000.21,0000.20,-000.00,0000.31,-000.29,19.7,26.3,,00.0,0667.8,31.1
2021-12-23T00:30:00Z,00000200,01000000,-000.19,-000.20,0000.29,0000.31,0000.16,0000.31,-000.08,-000.01,0000.53,19.7,26.3,,00.0,0667.8,31.1
2021-12-23T00:31:00Z,00000200,01000000,0000.67,-000.10,0000.38,0000.07,0000.30,0000.38,0000.06,-000.08,-000.30,19.8,26.3,,00.0,0667.8,31.1
2021-12-23T00:32:00Z,00000200,01000000,0000.42,-000.43,0000.22,-000.35,0000.41,0000.30,-000.15,-000.13,0000.13,19.9,26.3,,00.0,0667.8,31.1
2021-12-23T00:33:00Z,00000200,01000000,0000.57,-000.30,0000.05,0000.08,-000.16,-000.14,0000.16,0000.16,-000.13,19.9,26.4,,00.0,0667.8,31.1
2021-12-23T00:34:00Z,00000200,01000000,-000.00,-000.36,-000.16,-000.15,0000.26,0000.32,0000.43,0000.25,0000.62,19.9,26.4,,00.0,0667.8,31.1
2021-12-23T00:35:00Z,00000200,01000000,-000.07,-000.28,0000.01,0000.05,0000.21,0000.12,0000.34,0000.24,0000.03,20.0,26.4,,00.0,0667.8,31.1
2021-12-23T00:36:00Z,00000200,01000000,0000.04,0000.07,-000.06,0000.74,-000.14,-000.16,0000.50,0000.75,0000.37,20.0,26.4,,00.0,0667.7,31.1
2021-12-23T00:37:00Z,00000200,01000000,0000.40,0000.03,-000.00,-000.38,-000.10,-000.10,0000.60,0000.52,0000.52,19.9,26.4,,00.0,0667.7,31.2
2021-12-23T00:38:00Z,00000200,01000000,0000.25,-000.10,-000.26,-000.85,-000.03,0000.26,0000.34,0000.39,0000.30,19.8,26.4,,00.0,0667.6,31.1
2021-12-23T00:39:00Z,00000200,01000000,0000.69,-000.09,-000.25,0000.10,0000.29,0000.04,0000.21,-000.37,-000.05,19.7,26.4,,00.0,0667.6,31.1
2021-12-23T00:40:00Z,00000200,01000000,0000.21,-000.33,-000.38,0000.00,-000.14,-000.19,0000.23,0000.32,-000.08,19.7,26.3,,00.0,0667.6,31.1
2021-12-23T00:41:00Z,00000200,01000000,0000.66,-000.49,-000.24,0000.31,0000.20,-000.04,-000.09,0000.08,0000.04,19.7,26.3,,00.0,0667.6,31.1
2021-12-23T00:42:00Z,00000200,01000000,0000.09,0000.17,0000.01,-000.28,-000.01,-000.07,-000.38,-000.14,0000.13,19.7,26.3,,00.0,0667.6,31.1
2021-12-23T00:43:00Z,00000200,01000000,0000.22,-000.53,-000.10,0000.01,0000.09,0000.08,0000.09,-000.01,-000.17,19.8,26.3,,00.0,0667.6,31.1
2021-12-23T00:44:00Z,00000200,01000000,-000.05,-000.64,0000.10,-000.44,0000.15,0000.30,-000.40,-000.10,-000.08,19.8,26.3,,00.0,0667.6,31.1
2021-12-23T00:45:00Z,00000200,01000000,0000.24,0000.24,0000.25,-000.59,0000.33,0000.54,0000.30,0000.21,0000.10,19.9,26.3,,00.0,0667.6,31.1
2021-12-23T00:46:00Z,00000200,01000000,-000.15,-000.14,-000.12,0000.16,-000.03,-000.03,-000.02,-000.33,-000.06,19.9,26.3,,00.0,0667.6,31.1
2021-12-23T00:47:00Z,00000200,01000000,-000.03,-000.08,-000.06,-000.21,0000.39,0000.50,0000.26,0000.40,-000.06,19.9,26.3,,00.0,0667.6,31.1
2021-12-23T00:48:00Z,00000200,01000000,-000.52,-000.18,-000.19,0000.58,0000.47,-000.55,-000.02,0000.23,0000.12,20.0,26.4,,00.0,0667.6,31.1
2021-12-23T00:49:00Z,00000200,01000000,0000.67,0000.16,-000.24,0000.07,0000.15,0000.21,-000.31,-000.32,-000.02,20.0,26.4,,00.0,0667.6,31.1
2021-12-23T00:50:00Z,00000200,01000000,0000.11,-000.29,-000.14,0000.02,-000.04,-000.01,0000.13,0000.11,-000.05,20.0,26.4,,00.0,0667.7,31.1
2021-12-23T00:51:00Z,00000200,01000000,0000.41,-000.29,0000.14,0000.51,0000.36,0000.41,-000.40,-000.54,-000.32,20.0,26.4,,00.0,0667.7,31.2
2021-12-23T00:52:00Z,00000200,01000000,0001.06,0000.13,0000.11,0000.08,-000.22,-000.03,0000.05,-000.02,-000.02,20.0,26.4,,00.0,0667.7,31.1
2021-12-23T00:53:00Z,00000200,01000000,0000.91,0000.08,-000.23,0000.43,0000.23,0000.17,-000.10,-000.03,-000.34,19.9,26.4,,00.0,0667.7,31.1
2021-12-23T00:54:00Z,00000200,01000000,0001.50,0000.14,-000.00,-000.42,0000.26,0000.07,-000.31,-000.50,0000.13,19.8,26.3,,00.0,0667.7,31.1
2021-12-23T00:55:00Z,00000200,01000000,0000.41,-000.16,0000.08,0000.17,0000.13,-000.34,-000.16,-000.15,-000.11,19.8,26.3,,00.0,0667.7,31.1
2021-12-23T00:56:00Z,00000200,01000000,0000.73,0000.02,0000.14,0000.10,0000.29,0000.14,0000.13,0000.31,0000.07,19.7,26.2,,00.0,0667.7,31.1
2021-12-23T00:57:00Z,00000200,41000000,,,,,,,0000.27,0000.29,0000.42,19.8,26.3,,00.0,0667.4,31.1
2021-12-23T00:58:00Z,00000200,61000000,,,,,,,-000.26,-000.36,-000.14,19.5,26.4,,00.0,0666.7,31.1
2021-12-23T00:59:00Z,00000200,21000000,,,,,,,0000.41,0000.20,0000.02,19.5,26.5,,00.0,0666.6,31.1
